MZT1233 ZSLO-ZGSZ

Flight info

Callsign MZT1233
Flight time N/A
Altitude 34100
Route P508 H22 XEBUL H25 P673 W20 SALIV R473 NOLON W90 POU W7 SAREX
Aircraft CL60/M-SADE3FGHIJ3J4J7P2RWXY/HB1D1

Departure

Time 2026-05-05 09:39
Airport Liancheng Guanzhishan Airport (ZSLO)

Arrival

Time N/A
Airport Shenzhen Bao'an International Airport (ZGSZ)
Time Latitude Longitude Altitude Speed Heading
2026-05-05 09:26 25.68233 116.75312 1248 ft 0 kts 74°
2026-05-05 09:35 25.68234 116.75318 1247 ft 0 kts 76°
2026-05-05 09:36 25.68235 116.75320 1247 ft 2 kts 76°
2026-05-05 09:36 25.68220 116.75359 1246 ft 6 kts 184°
2026-05-05 09:37 25.68190 116.75288 1250 ft 15 kts 256°
2026-05-05 09:37 25.68211 116.75161 1247 ft 23 kts 292°
2026-05-05 09:37 25.68266 116.75015 1239 ft 17 kts 293°
2026-05-05 09:37 25.68338 116.74956 1239 ft 13 kts 14°
2026-05-05 09:38 25.68432 116.74996 1240 ft 15 kts 20°
2026-05-05 09:38 25.68542 116.75049 1237 ft 19 kts 25°
2026-05-05 09:38 25.68606 116.75083 1233 ft 7 kts 289°
2026-05-05 09:38 25.68557 116.75050 1236 ft 20 kts 201°
2026-05-05 09:39 25.68104 116.74845 1235 ft 123 kts 203°
2026-05-05 09:39 25.67083 116.74378 1582 ft 178 kts 202°
2026-05-05 09:39 25.65885 116.73823 2437 ft 201 kts 204°
2026-05-05 09:39 25.64565 116.73178 3445 ft 217 kts 202°
2026-05-05 09:40 25.63072 116.72831 4569 ft 225 kts 186°
2026-05-05 09:40 25.61509 116.72648 5706 ft 231 kts 186°
2026-05-05 09:40 25.59911 116.72449 6852 ft 242 kts 186°
2026-05-05 09:40 25.58256 116.72234 8187 ft 245 kts 187°
2026-05-05 09:41 25.56567 116.72012 9486 ft 246 kts 187°
2026-05-05 09:41 25.54886 116.71737 10660 ft 250 kts 196°
2026-05-05 09:41 25.53449 116.70737 11733 ft 255 kts 232°
2026-05-05 09:41 25.52679 116.68986 12774 ft 259 kts 251°
2026-05-05 09:42 25.52130 116.67135 13943 ft 256 kts 252°
2026-05-05 09:42 25.51592 116.65297 15096 ft 252 kts 252°
2026-05-05 09:42 25.51065 116.63502 16192 ft 248 kts 252°
2026-05-05 09:42 25.50518 116.61710 17235 ft 246 kts 251°
2026-05-05 09:43 25.49934 116.59956 18132 ft 248 kts 251°
2026-05-05 09:43 25.49333 116.58173 19004 ft 250 kts 251°
2026-05-05 09:43 25.48732 116.56394 19850 ft 251 kts 251°
2026-05-05 09:43 25.48123 116.54598 20650 ft 252 kts 251°
2026-05-05 09:44 25.47507 116.52784 21392 ft 254 kts 251°
2026-05-05 09:44 25.46854 116.50975 22097 ft 255 kts 244°
2026-05-05 09:44 25.45809 116.49374 22514 ft 273 kts 233°
2026-05-05 09:44 25.44463 116.47691 22613 ft 301 kts 232°
2026-05-05 09:45 25.43016 116.45889 22729 ft 325 kts 232°
2026-05-05 09:45 25.41485 116.43987 23052 ft 338 kts 232°
2026-05-05 09:45 25.39914 116.42040 23561 ft 344 kts 232°
2026-05-05 09:45 25.38317 116.40062 24143 ft 345 kts 232°
2026-05-05 09:46 25.36700 116.38062 24713 ft 347 kts 232°
2026-05-05 09:46 25.35093 116.36074 25236 ft 350 kts 232°
2026-05-05 09:46 25.33449 116.34042 25734 ft 353 kts 232°
2026-05-05 09:46 25.31823 116.32034 26269 ft 356 kts 232°
2026-05-05 09:47 25.30155 116.29975 26840 ft 357 kts 232°
2026-05-05 09:47 25.28485 116.27914 27398 ft 359 kts 233°
2026-05-05 09:47 25.26857 116.25835 27932 ft 360 kts 235°
2026-05-05 09:47 25.25306 116.23653 28466 ft 360 kts 237°
2026-05-05 09:48 25.23796 116.21456 28979 ft 362 kts 237°
2026-05-05 09:48 25.22264 116.19234 29481 ft 364 kts 238°
2026-05-05 09:48 25.20726 116.17006 29969 ft 365 kts 238°
2026-05-05 09:48 25.19181 116.14770 30411 ft 367 kts 238°
2026-05-05 09:49 25.17622 116.12516 30802 ft 369 kts 238°
2026-05-05 09:49 25.16057 116.10256 31173 ft 372 kts 238°
2026-05-05 09:49 25.14487 116.07992 31534 ft 375 kts 238°
2026-05-05 09:49 25.12893 116.05695 31872 ft 377 kts 238°
2026-05-05 09:50 25.11280 116.03374 32199 ft 379 kts 238°
2026-05-05 09:50 25.09671 116.01060 32515 ft 380 kts 238°
2026-05-05 09:50 25.08064 115.98748 32821 ft 382 kts 238°
2026-05-05 09:50 25.06439 115.96414 33106 ft 384 kts 238°
2026-05-05 09:51 25.04803 115.94065 33360 ft 386 kts 238°
2026-05-05 09:51 25.03152 115.91696 33595 ft 388 kts 238°
2026-05-05 09:51 25.01487 115.89308 33823 ft 391 kts 238°
2026-05-05 09:51 24.99833 115.86937 34026 ft 393 kts 238°
2026-05-05 09:52 24.98129 115.84496 34142 ft 397 kts 238°
2026-05-05 09:52 24.96433 115.82065 34134 ft 404 kts 238°
2026-05-05 09:52 24.92942 115.77068 34117 ft 414 kts 238°
2026-05-05 09:53 24.89418 115.72032 34132 ft 417 kts 238°
2026-05-05 09:53 24.85840 115.66925 34121 ft 418 kts 238°
2026-05-05 09:54 24.82306 115.61890 34126 ft 418 kts 238°
2026-05-05 09:54 24.78727 115.56802 34133 ft 418 kts 238°
2026-05-05 09:55 24.75149 115.51720 34119 ft 419 kts 238°
2026-05-05 09:55 24.71589 115.46669 34115 ft 419 kts 238°
2026-05-05 09:56 24.68018 115.41609 34117 ft 419 kts 238°
2026-05-05 09:56 24.64488 115.36549 34116 ft 419 kts 238°
2026-05-05 09:57 24.60912 115.31409 34113 ft 419 kts 238°
2026-05-05 09:57 24.57436 115.26417 34109 ft 419 kts 238°
2026-05-05 09:58 24.53888 115.21327 34108 ft 419 kts 238°
2026-05-05 09:58 24.50345 115.16252 34112 ft 419 kts 238°
2026-05-05 09:59 24.46768 115.11131 34116 ft 420 kts 238°
2026-05-05 09:59 24.43226 115.06066 34119 ft 420 kts 238°
2026-05-05 10:00 24.39652 115.00963 34119 ft 420 kts 238°
2026-05-05 10:00 24.36079 114.95870 34115 ft 421 kts 238°
2026-05-05 10:01 24.32584 114.90766 34108 ft 418 kts 242°
2026-05-05 10:01 24.30150 114.85046 34099 ft 410 kts 256°
2026-05-05 10:02 24.29188 114.78941 34099 ft 407 kts 268°
2026-05-05 10:02 24.29437 114.72741 34101 ft 408 kts 275°
2026-05-05 10:03 24.30001 114.66580 34107 ft 408 kts 275°
2026-05-05 10:03 24.30548 114.60381 34110 ft 409 kts 275°
2026-05-05 10:04 24.31089 114.54182 34111 ft 409 kts 276°
2026-05-05 10:04 24.31642 114.47941 34114 ft 409 kts 276°